Regional Weather Roundup
Issued by NWS

Home | Current Version | Previous Version | Text Only | Print | Product List | Glossary Off
Versions: 1 2 3 4 5 6 7 8 9 10 11 12 13 14 15 16 17 18 19 20 21 22 23 24 25 26 27 28 29 30 31 32 33 34 35 36 37 38 39 40 41 42 43 44 45 46 47 48 49 50

000
ASUS43 KDMX 281003
RWRIA

WEATHER ROUNDUP FOR IOWA
NATIONAL WEATHER SERVICE DES MOINES IA
500 AM CDT SUN AUG 28 2016

NOTE: "FAIR" INDICATES FEW OR NO CLOUDS BELOW 12,000 FEET WITH NO
SIGNIFICANT WEATHER AND/OR OBSTRUCTIONS TO VISIBILITY.

* - THESE STATIONS ARE NOT NWS STATIONS...THUS NOT UNDER NWS
QUALITY CONTROL.  THEY ALSO DO NOT REPORT WEATHER SUCH
AS PRECIPITATION OR FOG.

IAZ001>003-012>014-020>022-031>034-043>046-281100-
   NORTHWEST IOWA

CITY           SKY/WX    TMP DP  RH WIND       PRES   REMARKS
CARROLL *      FOG       59  59 100 CALM      30.09R VSB<1/4
CHEROKEE *     CLEAR     60  60 100 CALM      30.08R FOG
DENISON *      CLEAR     64  64 100 E5        30.06S FOG
LE MARS *      CLEAR     64  63  94 CALM      30.06S
ORANGE CITY *  CLEAR     64  63  94 SE5       30.06S
SHELDON *      CLEAR     63  63 100 E6        30.06R
SIOUX CITY     CLEAR     65  62  90 SE9       30.05R
SPENCER        CLEAR     63  61  93 SE5       30.09R FOG
STORM LAKE *   CLEAR     63  63 100 SE7       30.09R FOG
$$

IAZ055>058-069>071-079>083-090>094-281100-
   SOUTHWEST IOWA

CITY           SKY/WX    TMP DP  RH WIND       PRES   REMARKS
ATLANTIC *     PTCLDY    61  61 100 CALM      30.08S
AUDUBON *      CLOUDY    57  55  94 CALM      30.10R FOG
CLARINDA *       N/A     63  63 100 MISG      30.10S
COUNCIL BLFS * CLEAR     68  66  94 SE6       30.08R
CRESTON *      PTCLDY    66  66 100 SE3       30.11S
HARLAN  *      FOG       59  59 100 CALM      30.11S VSB<1/4
LAMONI         PTCLDY    70  67  90 E5        30.09F
RED OAK *      PTCLDY    66  64  94 CALM      30.08R
SHENANDOAH *   PTCLDY    68 -38   1 CALM      30.08R
$$

IAZ047>049-059>061-072>074-084-281100-
   CENTRAL IOWA

CITY           SKY/WX    TMP DP  RH WIND       PRES   REMARKS
AMES           FOG       61  61 100 CALM      30.10R VSB 1/4
ANKENY *         N/A    N/A N/A N/A MISG        N/A
BOONE *          N/A     64  64 100 SE5       30.10R FOG
CHARITON *       N/A     68  66  94 MISG      30.09F
DES MOINES     PTCLDY    69  67  93 E3        30.08F
GRINNELL*      PTCLDY    64  64  97 E5        30.11F FOG
KNOXVILLE *    PTCLDY    68  66  94 S8        30.09R
MARSHALLTOWN   MOCLDY    62  62 100 E5        30.10S FOG
NEWTON *       CLOUDY    66  66 100 E6        30.09F FOG
PELLA *        PTCLDY    68  67  96 CALM      30.10F
PERRY *        FOG       62  62 100 SE3       30.09S VSB 1/4
$$

IAZ004>006-015-016-023>025-035-036-281100-
   NORTH CENTRAL IOWA

CITY           SKY/WX    TMP DP  RH WIND       PRES   REMARKS
ALGONA *       CLEAR     64  64 100 SE6       30.11R FOG
ESTHERVILLE    FOG       57  57 100 S3        30.10R VSB 1/4
FORT DODGE *   CLEAR     64  63  94 E3        30.11R
MASON CITY     FOG       59  59 100 CALM      30.13S VSB 1/2
FOREST CITY *    N/A    N/A N/A N/A MISG        N/A
WEBSTER CITY * CLEAR     63  63 100 SE6       30.09R FOG
IOWA FALLS *   FOG       62  60  96 E3        30.13R VSB 3/4
$$

IAZ007>011-017>019-026>030-037>042-050>054-066-281100-
   NORTHEAST IOWA

CITY           SKY/WX    TMP DP  RH WIND       PRES   REMARKS
CEDAR RAPIDS   CLEAR     66  66 100 NE5       30.11R
CHARLES CITY * CLOUDY    64  64 100 SE3       30.13S FOG
CLINTON *      FOG       67  66  97 NE6       30.13S VSB 1
DECORAH *      FOG       61  61 100 CALM      30.12S VSB 1/2
DUBUQUE        CLEAR     64  63  96 CALM      30.14S
MONTICELLO *   FOG       61  61 100 CALM      30.12S VSB 3/4
OELWEIN *      CLEAR     61  59  94 SE5       30.13S FOG
WATERLOO       CLEAR     60  58  92 CALM      30.11R FOG
$$

IAZ064-065-067-068-078-281100-
   EAST CENTRAL IOWA

CITY           SKY/WX    TMP DP  RH WIND       PRES   REMARKS
DAVENPORT      CLEAR     66  65  96 NE5       30.12S
IOWA CITY      CLEAR     67  65  93 CALM      30.11S
MT. PLEASANT * PTCLDY    69  69 100 CALM      30.10S FOG
MUSCATINE *    PTCLDY    66  64  94 CALM      30.11R
QUAD CITIES    PTCLDY    69  67  93 E3        30.11S FOG
$$

IAZ062-063-075>077-085>089-095>099-281100-
   SOUTHEAST IOWA

CITY           SKY/WX    TMP DP  RH WIND       PRES   REMARKS
BURLINGTON     CLEAR     70  70 100 CALM      30.10S FOG
FAIRFIELD *    CLOUDY    70  68  94 E5        30.10S
FORT MADISON * CLEAR     70  70 100 CALM      30.11S FOG
KEOKUK *       CLEAR     72  70  94 CALM      30.10S FOG
OSKALOOSA *      N/A     66  65  97 E5        30.10S
CENTERVILLE *    N/A     68  68 100 CALM      30.11S
OTTUMWA        CLOUDY    67  66  97 E3        30.09F
WASHINGTON *   PTCLDY    66  66 100 SE3       30.11S FOG
$$

ABBREVIATIONS USED IN REMARKS
   TC - TEMPERATURES IN CELSIUS
  WCI - WIND CHILL INDEX
   HX - HEAT INDEX
  VSB - VISIBILITY
$$




USA.gov is the U.S. government's official web portal to all federal, state and local government web resources and services.